Time,TemperatureF,DewpointF,PressureIn,WindDirection,WindDirectionDegrees,WindSpeedMPH,WindSpeedGustMPH,Humidity,HourlyPrecipIn,Conditions,Clouds,dailyrainin,SoftwareType,DateUTC
2013-08-29 00:14:00,84.3,67.0,29.98,SE,137,0.0,1.0,56,0.00,,,0.00,weatherlink.com 1.10,2013-08-29 05:14:00,
2013-08-29 00:29:00,83.8,67.0,29.99,SSE,151,1.0,3.0,57,0.00,,,0.00,weatherlink.com 1.10,2013-08-29 05:29:00,
2013-08-29 00:44:00,83.7,66.0,29.99,SSE,151,0.0,1.0,56,0.00,,,0.00,weatherlink.com 1.10,2013-08-29 05:44:00,
2013-08-29 00:59:00,83.1,66.0,29.98,SSE,151,0.0,0.0,57,0.00,,,0.00,weatherlink.com 1.10,2013-08-29 05:59:00,
2013-08-29 01:14:00,82.7,67.0,29.98,SSE,151,1.0,2.0,59,0.00,,,0.00,weatherlink.com 1.10,2013-08-29 06:14:00,
2013-08-29 01:29:00,82.1,66.0,29.98,SSE,151,0.0,1.0,59,0.00,,,0.00,weatherlink.com 1.10,2013-08-29 06:29:00,
2013-08-29 01:44:00,82.1,67.0,29.99,SSE,151,0.0,2.0,61,0.00,,,0.00,weatherlink.com 1.10,2013-08-29 06:44:00,
2013-08-29 01:59:00,81.6,67.0,29.99,SSE,151,1.0,2.0,61,0.00,,,0.00,weatherlink.com 1.10,2013-08-29 06:59:00,
2013-08-29 02:14:00,81.3,67.0,29.99,SSE,151,2.0,3.0,62,0.00,,,0.00,weatherlink.com 1.10,2013-08-29 07:14:00,
2013-08-29 02:29:00,81.0,67.0,29.99,SSE,151,0.0,2.0,62,0.00,,,0.00,weatherlink.com 1.10,2013-08-29 07:29:00,
2013-08-29 02:44:00,80.7,67.0,29.99,SSE,151,0.0,1.0,63,0.00,,,0.00,weatherlink.com 1.10,2013-08-29 07:44:00,
2013-08-29 02:59:00,80.5,67.0,29.98,SSE,151,0.0,2.0,63,0.00,,,0.00,weatherlink.com 1.10,2013-08-29 07:59:00,
2013-08-29 03:14:00,80.2,67.0,29.99,SSE,151,0.0,1.0,64,0.00,,,0.00,weatherlink.com 1.10,2013-08-29 08:14:00,
2013-08-29 03:29:00,79.8,67.0,29.98,SSE,151,0.0,1.0,65,0.00,,,0.00,weatherlink.com 1.10,2013-08-29 08:29:00,
2013-08-29 03:44:00,79.4,67.0,29.98,SSE,151,0.0,1.0,67,0.00,,,0.00,weatherlink.com 1.10,2013-08-29 08:44:00,
2013-08-29 04:00:00,79.1,68.0,29.99,SSE,151,0.0,0.0,69,0.00,,,0.00,weatherlink.com 1.10,2013-08-29 09:00:00,
2013-08-29 04:15:00,79.0,68.0,29.99,SSE,151,0.0,0.0,70,0.00,,,0.00,weatherlink.com 1.10,2013-08-29 09:15:00,
2013-08-29 04:30:00,78.7,69.0,29.99,SSE,151,0.0,0.0,72,0.00,,,0.00,weatherlink.com 1.10,2013-08-29 09:30:00,
2013-08-29 04:45:00,78.4,69.0,29.99,SSE,151,0.0,0.0,73,0.00,,,0.00,weatherlink.com 1.10,2013-08-29 09:45:00,
2013-08-29 05:00:00,78.4,70.0,29.99,SSE,151,0.0,0.0,74,0.00,,,0.00,weatherlink.com 1.10,2013-08-29 10:00:00,
2013-08-29 05:15:00,78.2,70.0,29.99,SSE,151,0.0,0.0,75,0.00,,,0.00,weatherlink.com 1.10,2013-08-29 10:15:00,
2013-08-29 05:30:00,78.0,70.0,30.00,SSE,151,0.0,0.0,75,0.00,,,0.00,weatherlink.com 1.10,2013-08-29 10:30:00,
2013-08-29 05:45:00,78.0,70.0,30.00,SSE,151,0.0,0.0,76,0.00,,,0.00,weatherlink.com 1.10,2013-08-29 10:45:00,
2013-08-29 06:00:00,77.9,70.0,30.00,SSE,151,0.0,0.0,76,0.00,,,0.00,weatherlink.com 1.10,2013-08-29 11:00:00,
2013-08-29 06:15:00,77.8,70.0,30.00,SSE,151,0.0,0.0,76,0.00,,,0.00,weatherlink.com 1.10,2013-08-29 11:15:00,
2013-08-29 06:30:00,77.6,70.0,30.01,SSE,151,0.0,0.0,77,0.00,,,0.00,weatherlink.com 1.10,2013-08-29 11:30:00,
2013-08-29 06:45:00,77.3,69.0,30.02,SE,136,1.0,3.0,76,0.00,,,0.00,weatherlink.com 1.10,2013-08-29 11:45:00,
2013-08-29 07:00:00,77.0,68.0,30.02,ESE,122,1.0,4.0,74,0.00,,,0.00,weatherlink.com 1.10,2013-08-29 12:00:00,
2013-08-29 07:15:00,76.8,67.0,30.02,ESE,122,0.0,4.0,72,0.00,,,0.00,weatherlink.com 1.10,2013-08-29 12:15:00,
2013-08-29 07:30:00,77.3,67.0,30.02,ESE,122,1.0,4.0,71,0.00,,,0.00,weatherlink.com 1.10,2013-08-29 12:30:00,
2013-08-29 07:45:00,77.8,68.0,30.02,ESE,122,0.0,3.0,71,0.00,,,0.00,weatherlink.com 1.10,2013-08-29 12:45:00,
2013-08-29 08:00:00,78.4,68.0,30.03,ESE,122,2.0,3.0,70,0.00,,,0.00,weatherlink.com 1.10,2013-08-29 13:00:00,
2013-08-29 08:15:00,79.5,68.0,30.04,SE,135,0.0,3.0,68,0.00,,,0.00,weatherlink.com 1.10,2013-08-29 13:15:00,
2013-08-29 08:30:00,80.3,69.0,30.04,South,178,1.0,4.0,68,0.00,,,0.00,weatherlink.com 1.10,2013-08-29 13:30:00,
2013-08-29 08:45:00,81.8,69.0,30.04,South,175,0.0,4.0,66,0.00,,,0.00,weatherlink.com 1.10,2013-08-29 13:45:00,
2013-08-29 09:00:00,83.5,70.0,30.04,South,175,1.0,3.0,63,0.00,,,0.00,weatherlink.com 1.10,2013-08-29 14:00:00,
2013-08-29 09:15:00,85.9,69.0,30.04,South,174,0.0,3.0,57,0.00,,,0.00,weatherlink.com 1.10,2013-08-29 14:15:00,
2013-08-29 09:30:00,88.0,69.0,30.04,South,174,1.0,3.0,53,0.00,,,0.00,weatherlink.com 1.10,2013-08-29 14:30:00,
2013-08-29 09:45:00,87.7,70.0,30.05,SSW,194,0.0,3.0,55,0.00,,,0.00,weatherlink.com 1.10,2013-08-29 14:45:00,
2013-08-29 10:00:00,87.7,70.0,30.05,South,191,1.0,3.0,55,0.00,,,0.00,weatherlink.com 1.10,2013-08-29 15:00:00,
2013-08-29 10:15:00,87.8,70.0,30.05,South,176,0.0,3.0,56,0.00,,,0.00,weatherlink.com 1.10,2013-08-29 15:15:00,
2013-08-29 10:30:00,88.4,70.0,30.04,South,175,2.0,2.0,55,0.00,,,0.00,weatherlink.com 1.10,2013-08-29 15:30:00,
2013-08-29 10:45:00,89.3,70.0,30.04,SSW,192,0.0,2.0,54,0.00,,,0.00,weatherlink.com 1.10,2013-08-29 15:45:00,
2013-08-29 11:00:00,91.6,71.0,30.04,South,181,0.0,3.0,51,0.00,,,0.00,weatherlink.com 1.10,2013-08-29 16:00:00,
2013-08-29 11:15:00,93.3,70.0,30.04,NW,304,3.0,4.0,47,0.00,,,0.00,weatherlink.com 1.10,2013-08-29 16:15:00,
2013-08-29 11:30:00,94.4,70.0,30.04,SSE,163,1.0,4.0,45,0.00,,,0.00,weatherlink.com 1.10,2013-08-29 16:30:00,
2013-08-29 11:45:00,94.5,69.0,30.03,WSW,248,0.0,4.0,43,0.00,,,0.00,weatherlink.com 1.10,2013-08-29 16:45:00,
2013-08-29 12:00:00,95.3,68.0,30.03,SSE,161,0.0,4.0,41,0.00,,,0.00,weatherlink.com 1.10,2013-08-29 17:00:00,
2013-08-29 12:15:00,95.9,69.0,30.02,SSE,165,0.0,5.0,42,0.00,,,0.00,weatherlink.com 1.10,2013-08-29 17:15:00,
2013-08-29 12:31:00,96.3,68.0,30.02,South,171,1.0,3.0,40,0.00,,,0.00,weatherlink.com 1.10,2013-08-29 17:31:00,
2013-08-29 12:46:00,96.8,68.0,30.01,SSE,159,0.0,4.0,39,0.00,,,0.00,weatherlink.com 1.10,2013-08-29 17:46:00,
2013-08-29 13:01:00,96.7,66.0,30.01,SW,215,1.0,5.0,37,0.00,,,0.00,weatherlink.com 1.10,2013-08-29 18:01:00,
2013-08-29 13:16:00,97.7,68.0,30.00,SSE,161,0.0,3.0,38,0.00,,,0.00,weatherlink.com 1.10,2013-08-29 18:16:00,
2013-08-29 13:31:00,97.7,67.0,30.00,South,170,1.0,6.0,37,0.00,,,0.00,weatherlink.com 1.10,2013-08-29 18:31:00,
2013-08-29 13:46:00,98.1,67.0,29.99,SSE,159,0.0,5.0,36,0.00,,,0.00,weatherlink.com 1.10,2013-08-29 18:46:00,
2013-08-29 14:01:00,98.7,64.0,29.98,SSE,148,0.0,4.0,32,0.00,,,0.00,weatherlink.com 1.10,2013-08-29 19:01:00,
2013-08-29 14:16:00,98.9,66.0,29.98,SSE,151,2.0,6.0,34,0.00,,,0.00,weatherlink.com 1.10,2013-08-29 19:16:00,
2013-08-29 14:31:00,99.3,66.0,29.98,SW,234,0.0,3.0,34,0.00,,,0.00,weatherlink.com 1.10,2013-08-29 19:31:00,
2013-08-29 14:46:00,98.7,65.0,29.97,WNW,303,1.0,7.0,33,0.00,,,0.00,weatherlink.com 1.10,2013-08-29 19:46:00,
2013-08-29 15:01:00,99.6,64.0,29.96,SSE,153,1.0,4.0,31,0.00,,,0.00,weatherlink.com 1.10,2013-08-29 20:01:00,
2013-08-29 15:16:00,99.7,64.0,29.96,South,188,2.0,4.0,31,0.00,,,0.00,weatherlink.com 1.10,2013-08-29 20:16:00,
2013-08-29 15:31:00,100.6,63.0,29.95,West,269,0.0,6.0,29,0.00,,,0.00,weatherlink.com 1.10,2013-08-29 20:31:00,
2013-08-29 15:46:00,100.0,66.0,29.95,West,268,3.0,4.0,33,0.00,,,0.00,weatherlink.com 1.10,2013-08-29 20:46:00,
2013-08-29 16:01:00,100.4,65.0,29.94,South,169,3.0,4.0,31,0.00,,,0.00,weatherlink.com 1.10,2013-08-29 21:01:00,
2013-08-29 16:16:00,100.0,65.0,29.94,SSE,160,0.0,3.0,32,0.00,,,0.00,weatherlink.com 1.10,2013-08-29 21:16:00,
2013-08-29 16:31:00,100.6,66.0,29.93,South,170,0.0,5.0,32,0.00,,,0.00,weatherlink.com 1.10,2013-08-29 21:31:00,
2013-08-29 16:46:00,101.5,65.0,29.93,WSW,248,1.0,3.0,30,0.00,,,0.00,weatherlink.com 1.10,2013-08-29 21:46:00,
2013-08-29 17:01:00,101.2,65.0,29.93,WNW,301,0.0,4.0,30,0.00,,,0.00,weatherlink.com 1.10,2013-08-29 22:01:00,
2013-08-29 17:16:00,101.3,65.0,29.93,WNW,288,0.0,4.0,30,0.00,,,0.00,weatherlink.com 1.10,2013-08-29 22:16:00,
2013-08-29 17:31:00,101.3,64.0,29.92,South,182,1.0,3.0,29,0.00,,,0.00,weatherlink.com 1.10,2013-08-29 22:31:00,
2013-08-29 17:46:00,101.7,64.0,29.92,SSW,192,0.0,2.0,29,0.00,,,0.00,weatherlink.com 1.10,2013-08-29 22:46:00,
2013-08-29 18:01:00,101.8,63.0,29.92,NW,307,0.0,4.0,28,0.00,,,0.00,weatherlink.com 1.10,2013-08-29 23:01:00,
2013-08-29 18:16:00,101.5,63.0,29.92,NW,307,1.0,4.0,28,0.00,,,0.00,weatherlink.com 1.10,2013-08-29 23:16:00,
2013-08-29 18:31:00,101.7,64.0,29.92,NW,312,0.0,2.0,29,0.00,,,0.00,weatherlink.com 1.10,2013-08-29 23:31:00,
2013-08-29 18:46:00,101.7,64.0,29.92,NW,305,0.0,3.0,29,0.00,,,0.00,weatherlink.com 1.10,2013-08-29 23:46:00,
2013-08-29 19:01:00,99.5,65.0,29.92,NW,305,0.0,1.0,32,0.00,,,0.00,weatherlink.com 1.10,2013-08-30 00:01:00,
2013-08-29 19:16:00,97.3,64.0,29.92,NW,305,0.0,0.0,33,0.00,,,0.00,weatherlink.com 1.10,2013-08-30 00:16:00,
2013-08-29 19:31:00,95.4,64.0,29.92,NW,305,0.0,0.0,35,0.00,,,0.00,weatherlink.com 1.10,2013-08-30 00:31:00,
2013-08-29 19:46:00,94.2,63.0,29.92,NW,305,0.0,0.0,35,0.00,,,0.00,weatherlink.com 1.10,2013-08-30 00:46:00,
2013-08-29 20:01:00,93.2,64.0,29.92,NW,305,0.0,0.0,38,0.00,,,0.00,weatherlink.com 1.10,2013-08-30 01:01:00,
2013-08-29 20:16:00,92.1,65.0,29.92,NW,304,0.0,0.0,40,0.00,,,0.00,weatherlink.com 1.10,2013-08-30 01:16:00,
2013-08-29 20:31:00,91.0,64.0,29.92,NW,304,0.0,0.0,41,0.00,,,0.00,weatherlink.com 1.10,2013-08-30 01:31:00,
2013-08-29 20:46:00,90.1,65.0,29.93,NW,305,0.0,0.0,43,0.00,,,0.00,weatherlink.com 1.10,2013-08-30 01:46:00,
2013-08-29 21:01:00,89.3,64.0,29.93,NW,304,0.0,0.0,43,0.00,,,0.00,weatherlink.com 1.10,2013-08-30 02:01:00,
2013-08-29 21:16:00,88.8,65.0,29.93,NW,305,0.0,0.0,45,0.00,,,0.00,weatherlink.com 1.10,2013-08-30 02:16:00,
2013-08-29 21:31:00,88.1,64.0,29.93,NW,305,0.0,0.0,44,0.00,,,0.00,weatherlink.com 1.10,2013-08-30 02:31:00,
2013-08-29 21:46:00,87.9,64.0,29.93,NW,305,0.0,0.0,45,0.00,,,0.00,weatherlink.com 1.10,2013-08-30 02:46:00,
2013-08-29 22:01:00,87.7,64.0,29.93,ESE,123,4.0,4.0,45,0.00,,,0.00,weatherlink.com 1.10,2013-08-30 03:01:00,
2013-08-29 22:16:00,87.7,64.0,29.93,ESE,119,2.0,5.0,45,0.00,,,0.00,weatherlink.com 1.10,2013-08-30 03:16:00,
2013-08-29 22:31:00,87.8,63.0,29.93,ESE,115,2.0,5.0,44,0.00,,,0.00,weatherlink.com 1.10,2013-08-30 03:31:00,
2013-08-29 22:46:00,88.4,63.0,29.94,SE,129,2.0,4.0,43,0.00,,,0.00,weatherlink.com 1.10,2013-08-30 03:46:00,
2013-08-29 23:01:00,88.7,63.0,29.93,SE,126,2.0,5.0,42,0.00,,,0.00,weatherlink.com 1.10,2013-08-30 04:01:00,
2013-08-29 23:16:00,88.4,62.0,29.93,SE,126,3.0,5.0,42,0.00,,,0.00,weatherlink.com 1.10,2013-08-30 04:16:00,
2013-08-29 23:31:00,88.3,62.0,29.93,ESE,119,4.0,4.0,42,0.00,,,0.00,weatherlink.com 1.10,2013-08-30 04:31:00,
2013-08-29 23:46:00,87.8,63.0,29.93,SE,128,2.0,4.0,43,0.00,,,0.00,weatherlink.com 1.10,2013-08-30 04:46:00,